Location: Codford Saint Peter
(51.1597°N, 2.0531°W)
Time: 15:19:14
(UTC+00:00)

Cosmos 1975 Rocket - Pass Details

Date: 18 September 2020
Orbit: 603 x 634 km, 82.5° (Epoch: 27 October)

Event Time Altitude Azimuth Distance (km) Brightness Sun altitude
Rises 19:04:16 0° 349° (N) 2,887 6.8 -8.5°
Reaches altitude 10° 19:06:30 10° 349° (N) 1,973 6.0 -8.9°
Maximum altitude 19:10:52 87° 260° (W) 614 3.1 -9.5°
Drops below altitude 10° 19:15:11 10° 172° (S) 1,947 5.4 -10.2°
Sets 19:17:23 0° 172° (S) 2,845 6.2 -10.5°
